[TLELIST] Archives

 

Current TLEs

February 10th 2007 PST

HST 1 20580U 90037B 07040.87678963 .00000464 00000-0 23263-4 0 8048 2 20580 028.4693 300.2655 0003800 186.2388 173.8150 15.00188734720828 ISS (ZARYA) 1 25544U 98067A 07041.50456662 .00021107 00000-0 12285-3 0 6164 2 25544 051.6339 038.6776 0021520 190.0218 312.6008 15.78113247470760 CXO 1 25867U 99040B 07040.70833333 +.00000311 +00000-0 +00000-0 0 00335 2 25867 061.1239 092.0425 6057805 286.2773 355.0198 00.37804874001777 ____________________________________________________________________ These 2-Line ...Continue Reading

Current TLEs

February 9th 2007 PST

HST 1 20580U 90037B 07038.94749382 +.00000477 +00000-0 +24250-4 0 08385 2 20580 028.4694 312.8414 0003805 165.7629 194.3067 15.00187670720537 ISS (ZARYA) 1 25544U 98067A 07040.49053565 .00020267 00000-0 11837-3 0 6096 2 25544 051.6341 043.9168 0021558 186.1535 311.7254 15.78066708470601 CXO 1 25867U 99040B 07038.08333333 +.00000277 +00000-0 +00000-0 0 00328 2 25867 061.1092 092.0829 6054425 286.3425 357.5993 00.37805054001762 ____________________________________________________________________ These 2-Line ...Continue Reading

Current TLEs

February 8th 2007 PST

HST 1 20580U 90037B 07039.14707625 .00000474 00000-0 24043-4 0 8031 2 20580 028.4694 311.5404 0003805 167.8361 192.2319 15.00187769720567 ISS (ZARYA) 1 25544U 98067A 07039.47980691 .00069433 00000-0 39404-3 0 6033 2 25544 051.6368 049.1420 0021268 182.6629 329.4135 15.78051796470449 CXO 1 25867U 99040B 07038.08333333 +.00000277 +00000-0 +00000-0 0 00328 2 25867 061.1092 092.0829 6054425 286.3425 357.5993 00.37805054001762 ____________________________________________________________________ These 2-Line ...Continue Reading

Current TLEs

February 7th 2007 PST

HST 1 20580U 90037B 07037.94958164 .00000487 00000-0 25031-4 0 8024 2 20580 028.4696 319.3465 0003806 154.5062 205.5712 15.00187161720385 ISS (ZARYA) 1 25544U 98067A 07038.52742509 .00016742 00000-0 98867-4 0 5956 2 25544 051.6328 054.0596 0021959 178.5864 319.5103 15.77975030470299 CXO 1 25867U 99040B 07038.08333333 +.00000277 +00000-0 +00000-0 0 00328 2 25867 061.1092 092.0829 6054425 286.3425 357.5993 00.37805054001762 ____________________________________________________________________ These 2-Line ...Continue Reading

Current TLEs

February 6th 2007 PST

HST 1 20580U 90037B 07035.95375565 +.00000516 +00000-0 +27339-4 0 08218 2 20580 028.4696 332.3567 0003823 133.4141 226.6770 15.00186079720088 ISS (ZARYA) 1 25544U 98067A 07037.51752125 .00016501 00000-0 97659-4 0 5882 2 25544 051.6337 059.2775 0021982 174.7460 342.5552 15.77938813470136 CXO 1 25867U 99040B 07035.41666667 +.00000231 +00000-0 +00000-0 0 00310 2 25867 061.0981 092.1369 6051660 286.4010 354.5054 00.37804162001750 ____________________________________________________________________ These 2-Line ...Continue Reading

Current TLEs

February 5th 2007 PST

HST 1 20580U 90037B 07036.21986579 .00000519 00000-0 27528-4 0 7987 2 20580 028.4697 330.6220 0003831 136.0886 224.0007 15.00186289720123 ISS (ZARYA) 1 25544U 98067A 07036.50297727 .00018141 00000-0 10701-3 0 5820 2 25544 051.6342 064.5176 0022478 170.9322 339.3505 15.77910074469973 CXO 1 25867U 99040B 07035.41666667 +.00000231 +00000-0 +00000-0 0 00310 2 25867 061.0981 092.1369 6051660 286.4010 354.5054 00.37804162001750 ____________________________________________________________________ These 2-Line ...Continue Reading

Current TLEs

February 4th 2007 PST

HST 1 20580U 90037B 07034.88931456 .00000451 00000-0 22225-4 0 7975 2 20580 028.4697 339.2950 0003838 122.7682 237.3276 15.00184887719924 ISS (ZARYA) 1 25544U 98067A 07035.48822707 .00019021 00000-0 11222-3 0 5768 2 25544 051.6340 069.7603 0022092 167.0038 335.1911 15.77876411469810 CXO 1 25867U 99040B 07032.79166667 +.00000175 +00000-0 +00000-0 0 00309 2 25867 061.0914 092.1929 6047919 286.4660 357.0909 00.37800536001748 ____________________________________________________________________ These 2-Line ...Continue Reading

Current TLEs

February 3rd 2007 PST

HST 1 20580U 90037B 07033.55876142 .00000413 00000-0 19237-4 0 7964 2 20580 028.4701 347.9672 0003897 109.1832 250.9173 15.00183912719721 ISS (ZARYA) 1 25544U 98067A 07034.47442069 .00022947 00000-0 13461-3 0 5707 2 25544 051.6337 074.9956 0022296 163.1553 336.4611 15.77849093469659 CXO 1 25867U 99040B 07032.79166667 +.00000175 +00000-0 +00000-0 0 00309 2 25867 061.0914 092.1929 6047919 286.4660 357.0909 00.37800536001748 ____________________________________________________________________ These 2-Line ...Continue Reading

Current TLEs

February 2nd 2007 PST

HST 1 20580U 90037B 07 32.29474427 -.00000210 00000-0 00000+0 0 7952 2 20580 028.4697 356.2096 0004100 098.9778 261.1752 15.00182257719537 ISS (ZARYA) 1 25544U 98067A 07033.52496024 .00023537 00000-0 13827-3 0 5658 2 25544 051.6346 079.9012 0022039 159.7589 343.1143 15.77807967469505 CXO 1 25867U 99040B 07032.79166667 +.00000175 +00000-0 +00000-0 0 00309 2 25867 061.0914 092.1929 6047919 286.4660 357.0909 00.37800536001748 ____________________________________________________________________ These 2-Line ...Continue Reading

Current TLEs

February 1st 2007 PST

HST 1 20580U 90037B 07032.22820851 .00000456 00000-0 22675-4 0 7948 2 20580 028.4690 356.6522 0003878 098.5604 261.5425 15.00183479719520 ISS (ZARYA) 1 25544U 98067A 07032.51114569 .00026834 00000-0 15725-3 0 5581 2 25544 051.6353 085.1371 0022229 155.4417 345.0599 15.77767551469346 CXO 1 25867U 99040B 07030.16666667 +.00000145 +00000-0 +00000-0 0 00298 2 25867 061.0790 092.2379 6044362 286.5470 359.6658 00.37799783001738 ____________________________________________________________________ These 2-Line ...Continue Reading
  • This mailing list is a public mailing list - anyone may join or leave, at any time.
  • This mailing list is announce-only.

International Space Station (ISS) / Hubble Space Telescope (HST) / Chandra X-Ray Observatory Orbital Data via EMAIL

Privacy Policy:

Private list